KE0TRL Weather Reports


Display with metric or nautical units.
time (UTC)temp
F
wind
direction
speed
MPH
gust
MPH
rain 1hr
in
rain 24hr
in
rain mn
in
humidity
%
barometer
mb
20260831010302 86 135 0.0 0.0 0.00 0.00 0.00 66 1007.1
20260831005202 87 158 0.0 0.0 0.00 0.00 0.00 65 1007.1
20260831004102 88 135 0.0 0.0 0.00 0.00 0.00 63 1007.1
20260831003004 89 158 0.0 0.0 0.00 0.00 0.00 63 1007.1
20260831001802 90 158 1.0 1.0 0.00 0.00 0.00 61 1007.1
20260831000702 90 90 2.0 2.0 0.00 0.00 0.00 60 1007.1
20260830235602 91 135 1.0 4.0 0.00 0.00 0.00 56 1007.1
20260830234502 91 158 2.0 2.0 0.00 0.00 0.00 56 1007.1
20260830233302 91 45 4.0 6.0 0.00 0.00 0.00 55 1007.5
20260830232202 92 158 3.0 4.0 0.00 0.00 0.00 55 1007.1
20260830231003 93 225 2.0 2.0 0.00 0.00 0.00 55 1007.1
20260830225902 93 113 2.0 2.0 0.00 0.00 0.00 55 1007.1
20260830224702 93 90 8.0 8.0 0.00 0.00 0.00 55 1007.1
20260830222402 92 158 4.0 6.0 0.00 0.00 0.00 54 1007.1
20260830221302 93 23 5.0 7.0 0.00 0.00 0.00 53 1006.8
20260830220202 93 113 3.0 6.0 0.00 0.00 0.00 53 1006.8
20260830215102 94 203 2.0 5.0 0.00 0.00 0.00 54 1006.8
20260830214002 92 158 2.0 5.0 0.00 0.00 0.00 54 1006.8
20260830212902 92 135 2.0 6.0 0.00 0.00 0.00 54 1006.8
20260830211802 92 90 9.0 9.0 0.00 0.00 0.00 54 1006.8
20260830210702 92 135 4.0 7.0 0.00 0.00 0.00 54 1006.8
20260830205602 89 135 4.0 6.0 0.00 0.00 0.00 55 1007.5
20260830204502 89 113 6.0 7.0 0.00 0.00 0.00 55 1007.5
20260830203302 88 135 3.0 6.0 0.00 0.00 0.00 55 1007.1
20260830202202 91 113 6.0 6.0 0.00 0.00 0.00 55 1007.5
20260830201002 88 180 2.0 5.0 0.00 0.00 0.00 58 1007.1
20260830195902 90 113 6.0 6.0 0.00 0.00 0.00 56 1007.5
20260830194902 89 113 6.0 6.0 0.00 0.00 0.00 59 1007.5
20260830193802 89 113 5.0 7.0 0.00 0.00 0.00 55 1007.8
20260830192702 89 158 4.0 8.0 0.00 0.00 0.00 55 1007.8
20260830191602 89 135 5.0 6.0 0.00 0.00 0.00 55 1007.8
20260830190402 89 180 2.0 4.0 0.00 0.00 0.00 55 1007.1
20260830184203 88 248 2.0 6.0 0.00 0.00 0.00 55 1007.5
20260830183102 87 135 3.0 5.0 0.00 0.00 0.00 59 1007.5
20260830182003 86 68 3.0 6.0 0.00 0.00 0.00 60 1007.8
20260830175802 85 68 7.0 7.0 0.00 0.00 0.00 59 1008.1
20260830174702 85 113 3.0 7.0 0.00 0.00 0.00 59 1007.8
20260830173603 87 203 2.0 7.0 0.00 0.00 0.00 55 1007.8
20260830172402 85 113 4.0 8.0 0.00 0.00 0.00 59 1008.1
20260830171302 85 113 2.0 6.0 0.00 0.00 0.00 59 1008.1
20260830165002 85 270 8.0 9.0 0.00 0.00 0.00 58 1007.8
20260830163902 85 180 3.0 6.0 0.00 0.00 0.00 56 1007.8
20260830162702 85 0 4.0 7.0 0.00 0.00 0.00 59 1007.8
20260830160402 82 113 2.0 5.0 0.00 0.00 0.00 63 1007.8
20260830155306 82 113 6.0 6.0 0.00 0.00 0.00 63 1007.8
20260830154202 82 135 3.0 5.0 0.00 0.00 0.00 63 1007.8
20260830153102 82 158 2.0 4.0 0.00 0.00 0.00 65 1007.8
20260830152002 82 203 4.0 5.0 0.00 0.00 0.00 63 1007.8
20260830145702 81 158 1.0 3.0 0.00 0.00 0.00 65 1007.5
20260830144502 81 225 3.0 3.0 0.00 0.00 0.00 65 1007.5
20260830142305 79 270 1.0 2.0 0.00 0.00 0.00 69 1007.8
20260830141202 78 158 3.0 4.0 0.00 0.00 0.00 68 1007.5
20260830140003 78 90 2.0 4.0 0.00 0.00 0.00 68 1007.8
20260830134903 78 135 3.0 7.0 0.00 0.00 0.00 68 1007.8
20260830133702 78 158 2.0 2.0 0.00 0.00 0.00 69 1007.5
20260830132702 77 158 3.0 4.0 0.00 0.00 0.00 69 1007.5
20260830131602 77 90 1.0 4.0 0.00 0.00 0.00 69 1007.8
20260830130502 77 180 1.0 4.0 0.00 0.00 0.00 69 1007.8
20260830125305 77 180 2.0 3.0 0.00 0.00 0.00 69 1007.8
20260830123102 77 180 3.0 3.0 0.00 0.00 0.00 68 1007.8
20260830122002 77 180 3.0 3.0 0.00 0.00 0.00 68 1007.5
20260830115802 77 225 2.0 4.0 0.00 0.00 0.00 68 1007.8
20260830114602 77 225 1.0 2.0 0.00 0.00 0.00 66 1007.5
20260830113502 77 135 2.0 3.0 0.00 0.00 0.00 68 1007.5
20260830112402 77 203 1.0 2.0 0.00 0.00 0.00 68 1007.8
20260830111202 77 113 0.0 2.0 0.00 0.00 0.00 68 1007.8
20260830103802 78 158 2.0 4.0 0.00 0.00 0.00 65 1007.8
20260830102702 78 135 2.0 3.0 0.00 0.00 0.00 66 1008.1
20260830101602 78 113 3.0 4.0 0.00 0.00 0.00 66 1008.5
20260830100502 79 180 1.0 3.0 0.00 0.00 0.00 65 1008.5
20260830095305 79 135 6.0 6.0 0.00 0.00 0.00 65 1008.5
20260830094202 79 113 4.0 5.0 0.00 0.00 0.00 65 1008.1
20260830093003 79 135 4.0 4.0 0.00 0.00 0.00 66 1008.1
20260830091902 78 158 5.0 7.0 0.00 0.00 0.00 68 1008.1
20260830090802 78 113 2.0 3.0 0.00 0.00 0.00 69 1007.8
20260830084601 78 225 2.0 4.0 0.00 0.00 0.00 69 1007.5
20260830083503 78 180 3.0 3.0 0.00 0.00 0.00 69 1007.5
20260830082403 78 158 3.0 3.0 0.00 0.00 0.00 69 1007.8
20260830081402 78 90 2.0 2.0 0.00 0.00 0.00 69 1007.5
20260830072903 78 180 2.0 3.0 0.00 0.00 0.00 68 1007.5
20260830071702 79 180 4.0 6.0 0.00 0.00 0.00 68 1007.8
20260830070602 79 135 2.0 6.0 0.00 0.00 0.00 68 1007.8
20260830065502 79 23 2.0 3.0 0.00 0.00 0.00 66 1007.5
20260830064402 79 158 5.0 7.0 0.00 0.00 0.00 66 1007.5
20260830063102 80 135 4.0 5.0 0.00 0.00 0.00 66 1007.8
20260830062003 80 225 3.0 4.0 0.00 0.00 0.00 66 1007.8
20260830060802 80 158 3.0 5.0 0.00 0.00 0.00 66 1007.8
20260830055702 80 113 1.0 4.0 0.00 0.00 0.00 66 1007.8
20260830054502 81 158 2.0 6.0 0.00 0.00 0.00 65 1007.8
20260830053402 81 293 5.0 5.0 0.00 0.00 0.00 65 1007.8
20260830052302 81 180 2.0 3.0 0.00 0.00 0.00 65 1007.8
20260830051202 82 135 9.0 9.0 0.00 0.00 0.00 65 1007.5
20260830050004 82 158 3.0 5.0 0.00 0.00 0.00 65 1007.5
20260830045202 82 225 4.0 4.0 0.00 0.00 0.00 65 1007.8
20260830044102 82 158 2.0 2.0 0.00 0.00 0.00 65 1007.5
20260830041802 83 158 3.0 6.0 0.00 0.00 0.00 65 1007.5
20260830040702 83 135 4.0 7.0 0.00 0.00 0.00 65 1007.8
20260830035502 83 113 6.0 7.0 0.00 0.00 0.00 65 1007.8
20260830034402 83 90 3.0 7.0 0.00 0.00 0.00 65 1007.8
20260830033302 83 135 2.0 6.0 0.00 0.00 0.00 66 1007.5
20260830032202 84 180 7.0 7.0 0.00 0.00 0.00 66 1007.5
20260830031102 84 135 5.0 5.0 0.00 0.00 0.00 66 1007.5
20260830030003 83 180 2.0 3.0 0.00 0.00 0.00 68 1007.5
20260830025002 83 45 2.0 4.0 0.00 0.00 0.00 69 1007.5
20260830023902 84 135 2.0 4.0 0.00 0.00 0.00 69 1007.1
20260830022802 83 180 2.0 4.0 0.00 0.00 0.00 70 1007.1
20260830021702 84 135 2.0 9.0 0.00 0.00 0.00 70 1007.1
20260830020702 84 68 3.0 4.0 0.00 0.00 0.00 70 1007.1
20260830015602 84 180 2.0 5.0 0.00 0.00 0.00 70 1006.8
20260830014502 84 135 1.0 3.0 0.00 0.00 0.00 70 1006.8
20260830013302 85 225 3.0 4.0 0.00 0.00 0.00 70 1006.8
20260830012202 85 180 1.0 6.0 0.00 0.00 0.00 70 1006.4
20260830011102 85 68 4.0 4.0 0.00 0.00 0.00 70 1006.4